Home   Weather   Kwajalein   Past weeks

Flag for Marshall Islands Past Weather in Kwajalein, Marshall Islands — Yesterday and Last 2 Weeks

Now
80 °F

Light rain. Partly cloudy.


Feels Like: 85 °F
Forecast: 80 / 85 °F
Wind: 22 mph from East

Location: Kwajalein / Bucholz

Current Time: Jan 21, 2017 at 10:55:59 pm

Latest Report: Jan 21, 2017 at 10:20 pm


Visibility: 7 mi

Pressure: 29.88 "Hg

Humidity: 87%

Dew Point: 76 °F

Location of KwajaleinLocation

Past Weather in Kwajalein — Graph

°F

Kwajalein Temperature Yesterday

Maximum temperature yesterday: 87 °F (at 2:00 pm)
Minimum temperature yesterday: 80 °F (at 10:20 pm)
Average temperature yesterday: 83 °F

High & Low Weather Summary for the Past Weeks

 TemperatureHumidityPressure
High89 °F (Jan 10, 1:40 pm)96% (Jan 16, 9:00 am)29.96 "Hg (Jan 16, 9:00 am)
Low76 °F (Jan 16, 10:20 pm)58% (Jan 20, 9:00 am)29.67 "Hg (Jan 7, 3:20 pm)
Average82 °F77%29.82 "Hg
* Reported Jan 6 9:00 pm — Jan 21 9:20 pm, Kwajalein, Weather by CustomWeather, © 2017

Note: Actual official high and low records may vary slightly from our data, if they occured in-between our weather recording intervals... More about our weather records

Advertising

Kwajalein Weather History for the Previous 24 Hours

Scroll right to see more
 ConditionsComfort  
Time TempWeatherWind HumidityBarometerVisibility
9:20 pm
Sat, Jan 21
81 °FPartly cloudy.18 mph82%29.88 "Hg10 mi
9:00 pm81 °FPartly cloudy.25 mph80%29.87 "Hg10 mi
8:40 pm81 °FPassing clouds.22 mph80%29.86 "Hg10 mi
8:20 pm81 °FPassing clouds.18 mph80%29.85 "Hg10 mi
8:00 pm81 °FClear.17 mph80%29.85 "Hg10 mi
7:40 pm82 °FClear.18 mph79%29.84 "Hg10 mi
7:20 pm82 °FPassing clouds.18 mph78%29.83 "Hg10 mi
7:00 pm83 °FPassing clouds.21 mph77%29.83 "Hg10 mi
6:20 pm83 °FScattered clouds.20 mph76%29.82 "Hg10 mi
6:00 pm83 °FScattered clouds.21 mph76%29.81 "Hg10 mi
5:40 pm84 °FScattered clouds.20 mph75%29.80 "Hg10 mi
5:20 pm84 °FBroken clouds.20 mph74%29.80 "Hg10 mi
5:00 pm85 °FBroken clouds.22 mph73%29.80 "Hg10 mi
4:20 pm86 °FBroken clouds.18 mph71%29.79 "Hg10 mi
4:00 pm86 °FScattered clouds.20 mph70%29.79 "Hg10 mi
3:40 pm86 °FScattered clouds.20 mph70%29.79 "Hg10 mi
3:20 pm86 °FScattered clouds.21 mph72%29.79 "Hg10 mi
3:00 pm85 °FSunny.18 mph73%29.79 "Hg10 mi
2:40 pm84 °FSunny.20 mph77%29.80 "Hg10 mi
2:20 pm83 °FScattered clouds.20 mph80%29.80 "Hg10 mi
2:00 pm83 °FScattered clouds.17 mph81%29.81 "Hg10 mi
1:20 pm83 °FDrizzle. Broken clouds.23 mph83%29.84 "Hg5 mi
1:00 pm83 °FBroken clouds.25 mph82%29.85 "Hg7 mi
12:20 pm83 °FScattered clouds.21 mph83%29.87 "Hg10 mi
12:00 pm83 °FSunny.18 mph81%29.88 "Hg10 mi
11:20 am84 °FHeavy rain. Cloudy.25 mph76%29.90 "Hg2 mi
11:00 am85 °FScattered clouds.21 mph75%29.90 "Hg10 mi
10:41 am86 °FSunny.20 mph70%29.90 "Hg10 mi
10:21 am86 °FScattered clouds.21 mph70%29.91 "Hg10 mi
10:01 am84 °FScattered clouds.20 mph79%29.90 "Hg10 mi
9:41 am84 °FScattered clouds.20 mph79%29.91 "Hg10 mi
9:21 am82 °FBroken clouds.21 mph84%29.91 "Hg10 mi
8:41 am82 °FPartly sunny.16 mph84%29.90 "Hg10 mi
7:00 am78 °FClear.16 mph90%29.86 "Hg10 mi
6:20 am77 °FPassing clouds.16 mph90%29.85 "Hg10 mi
6:00 am77 °FPartly cloudy.16 mph90%29.84 "Hg10 mi
5:20 am78 °FLight rain. Mostly cloudy.16 mph87%29.84 "Hg10 mi
5:00 am78 °FDrizzle. Overcast.16 mph86%29.84 "Hg7 mi
4:40 am79 °FHeavy rain. Overcast.22 mph83%29.84 "Hg3 mi
4:20 am80 °FPassing clouds.25 mph81%29.83 "Hg10 mi
4:00 am80 °FClear.15 mph81%29.83 "Hg10 mi
3:20 am80 °FPassing clouds.21 mph81%29.83 "Hg10 mi
3:00 am80 °FClear.17 mph80%29.83 "Hg10 mi
2:40 am80 °FPassing clouds.16 mph80%29.83 "Hg10 mi
2:20 am81 °FPartly cloudy.15 mph80%29.84 "Hg10 mi
2:00 am81 °FPassing clouds.20 mph81%29.84 "Hg10 mi
1:40 am81 °FPartly cloudy.18 mph80%29.84 "Hg10 mi
1:20 am81 °FPartly cloudy.21 mph80%29.84 "Hg10 mi
1:00 am81 °FPassing clouds.20 mph81%29.84 "Hg10 mi
12:40 am81 °FPassing clouds.16 mph80%29.85 "Hg10 mi
12:20 am81 °FPartly cloudy.18 mph80%29.85 "Hg10 mi
12:00 am81 °FPassing clouds.20 mph81%29.85 "Hg10 mi
11:20 pm
Fri, Jan 20
80 °FPassing clouds.22 mph82%29.85 "Hg10 mi
11:00 pm80 °FPassing clouds.21 mph83%29.85 "Hg10 mi
10:40 pm80 °FPassing clouds.21 mph83%29.85 "Hg10 mi
10:20 pm80 °FPassing clouds.17 mph82%29.86 "Hg10 mi
10:00 pm80 °FOvercast.16 mph82%29.86 "Hg10 mi
Weather by CustomWeather, © 2017

See weather overviewHow to use our weather pages